sat.trackr.live / text

‹ back to catalog

STARLINK-35867

NORAD 66791 · 2025-278A

PAYLOAD ACTIVE UNKNOWN

§ Identity

Operator
Country
US
Launch date
2025-12-01
Launch site
AFETR
Launch vehicle
Mass (kg)
RCS (m²)

Purposes: comms

External: N2YO · Heavens-Above · Gunter

§ Orbital elements

Epoch: 2026-05-24T23:47:13.892928Z

Period
94.27 min
Inclination
43.0006°
Eccentricity
0.0001396
Mean motion
15.27596266 rev/d
Perigee alt
482.0 km
Apogee alt
484.0 km
Semi-major
6,861.1 km
B*
6.8020e-4
RAAN
43.8745°
Arg perigee
248.6491°
Mean anomaly
111.4211°
Rev number
2,687

§ Raw data

STARLINK-358671 66791U 25278A   26144.99113302  .00018512  00000+0  68020-3 0  99932 66791  43.0006  43.8745 0001396 248.6491 111.4211 15.27596266 26871

JSON: /api/v1/satellites/66791 · /tle

For live sub-satellite position, see the globe view (requires WebGL).

§ Visibility from observer

Set your observer location to see the next 7 days of passes ≥ 10°. The values pass through the URL so the page stays shareable.

No JS? Fill the form by hand. The geolocation button needs JavaScript.